Location: Franzen
(48.6167°N, 15.3833°E)
Time: 17:11:41
(UTC+00:00)

A-11 Canister half - Pass Details

Date: 28 July 2021
Orbit: 1515 x 1685 km, 47.2° (Epoch: 19 September)

Event Time Altitude Azimuth Distance (km) Brightness Sun altitude
Rises 22:31:23 0° 288° (WNW) 4,921 12.0 -22.2°
Reaches altitude 10° 22:34:38 10° 284° (WNW) 3,942 11.4 -22.3°
Maximum altitude 22:44:18 52° 212° (SSW) 2,024 9.3 -22.5°
Enters shadow 22:48:59 32° 156° (SSE) 2,609 9.7 -22.5°
Drops below altitude 10° 22:53:55 10° 141° (SE) 3,920 - -22.6°
Sets 22:57:09 0° 136° (SE) 4,892 - -22.6°
